Location: Aldenham
(51.6667°N, 0.3500°W)
Time: 07:00:32
(UTC+00:00)

Cosmos 2369 Rocket - Pass Details

Date: 18 November 2025
Orbit: 826 x 853 km, 71.0° (Epoch: 16 December)

Event Time Altitude Azimuth Distance (km) Brightness Sun altitude
Rises 19:28:56 0° 200° (SSW) 3,359 5.5 -30.9°
Reaches altitude 10° 19:31:22 10° 198° (SSW) 2,433 4.7 -31.3°
Enters shadow 19:32:14 15° 196° (SSW) 2,110 4.3 -31.4°
